Weather History for Salem, OR

Change the Weather History Date:

Tuesday, February 14, 2012

  Actual Average Record
Temperature  
Mean Temperature 41 °F 43 °F  
Max Temperature 46 °F 51 °F 67 °F (1898)
Min Temperature 36 °F 34 °F 18 °F (1990)
Degree Days  
Heating Degree Days 24 22  
Month to date heating degree days 296 315  
Since 1 July heating degree days 2772 2942  
Cooling Degree Days 0 0  
Month to date cooling degree days 0 0  
Year to date cooling degree days 0 0  
Moisture  
Dew Point 36 °F    
Average Humidity 83    
Maximum Humidity 93    
Minimum Humidity 73    
Precipitation  
Precipitation 0.11 in 0.16 in 1.28 in (1904)
Month to date precipitation 1.20 2.37  
Year to date precipitation 11.52 8.33  
Snow  
Snow 0.00 in - - ()
Month to date snowfall 0.0  
Snow Depth 0.00 in    
Sea Level Pressure  
Sea Level Pressure 30.07 in    
Wind  
Wind Speed 7 mph (SSW)    
Max Wind Speed 17 mph    
Max Gust Speed 23 mph    
Visibility 10 miles    
Events Rain    
T = Trace of Precipitation, MM = Missing Value Source: NWS Daily Summary

Daily Weather History Graph

Daily Weather History Graph

Search for Another Location

Airport:

Trip Planner

Search our weather history database for the weather conditions in past years. The results will help you decide how hot, cold, wet, or windy it might be!

Date:

Astronomy

Feb. 14, 2012 Rise Set
Actual Time 7:14 AM PST 5:38 PM PST
Civil Twilight 6:44 AM PST 6:08 PM PST
Nautical Twilight 6:10 AM PST 6:42 PM PST
Astronomical Twilight 5:36 AM PST 7:16 PM PST
Moon 1:12 AM PST (2/14) 10:41 AM PST (2/14)
Length of Visible Light 11h 23m
Length of Day
10h 23m
Waning Gibbous, 49% of the Moon is Illuminated
Feb 14
Waning Gibbous
Feb 21
New
Feb 29
First Quarter
Mar 8
Full
Mar 14
Last Quarter

Hourly Weather History & Observations

Time (PST) Temp. Windchill Dew Point Humidity Pressure Visibility Wind Dir Wind Speed Gust Speed Precip Events Conditions
12:56 AM 42.1 °F 38.4 °F 39.0 °F 89% 30.09 in 10.0 mi SSW 5.8 mph - N/A   Overcast
1:56 AM 41.0 °F 35.8 °F 39.0 °F 93% 30.09 in 10.0 mi SSE 8.1 mph - N/A   Overcast
2:56 AM 39.9 °F 33.4 °F 37.9 °F 93% 30.06 in 10.0 mi South 10.4 mph - N/A   Overcast
3:56 AM 39.0 °F 33.4 °F 37.0 °F 93% 30.04 in 10.0 mi SSE 8.1 mph - N/A   Mostly Cloudy
4:56 AM 41.0 °F 34.3 °F 37.9 °F 89% 30.04 in 10.0 mi South 11.5 mph - N/A   Overcast
5:27 AM 41.0 °F 33.9 °F 37.4 °F 87% 30.03 in 10.0 mi South 12.7 mph - N/A   Overcast
5:56 AM 41.0 °F 35.2 °F 37.9 °F 89% 30.04 in 10.0 mi South 9.2 mph - N/A   Overcast
6:20 AM 41.0 °F 34.3 °F 37.4 °F 87% 30.04 in 10.0 mi South 11.5 mph - N/A   Overcast
8:48 AM 42.8 °F 36.6 °F 37.4 °F 81% 30.02 in 3.0 mi SSW 11.5 mph - 0.00 in Rain Light Rain
9:33 AM 41.0 °F 33.9 °F 37.4 °F 87% 30.01 in 10.0 mi SSW 12.7 mph - 0.02 in   Overcast
9:56 AM 41.0 °F 37.1 °F 36.0 °F 82% 30.03 in 10.0 mi SSW 5.8 mph - 0.02 in Rain Light Rain
10:56 AM 44.1 °F 39.0 °F 37.0 °F 76% 30.04 in 10.0 mi SW 9.2 mph - 0.00 in Rain Light Rain
11:14 AM 44.6 °F 39.2 °F 37.4 °F 76% 30.03 in 10.0 mi SSW 10.4 mph - 0.00 in   Mostly Cloudy
11:56 AM 43.0 °F 40.3 °F 36.0 °F 76% 30.03 in 10.0 mi West 4.6 mph - 0.00 in   Overcast
12:43 PM 44.6 °F 40.7 °F 35.6 °F 71% 30.01 in 10.0 mi WNW 6.9 mph - 0.00 in Rain Light Rain
12:56 PM 39.9 °F 33.9 °F 35.1 °F 83% 30.01 in 8.0 mi SW 9.2 mph - 0.04 in Rain Light Rain
1:56 PM 44.1 °F 40.1 °F 37.9 °F 79% 29.99 in 10.0 mi South 6.9 mph - 0.00 in   Mostly Cloudy
2:30 PM 44.6 °F 42.2 °F 39.2 °F 81% 29.99 in 8.0 mi SE 4.6 mph - 0.00 in Rain Light Rain
2:56 PM 43.0 °F 37.2 °F 37.0 °F 80% 30.01 in 10.0 mi NW 10.4 mph - 0.04 in   Mostly Cloudy
3:56 PM 42.1 °F 35.7 °F 35.1 °F 76% 30.01 in 10.0 mi West 11.5 mph - N/A   Mostly Cloudy
5:56 PM 39.9 °F 37.8 °F 34.0 °F 79% 30.06 in 10.0 mi Variable 3.5 mph - N/A   Overcast
6:56 PM 37.9 °F 35.5 °F 33.1 °F 83% 30.09 in 10.0 mi SSW 3.5 mph - N/A   Mostly Cloudy
7:56 PM 37.0 °F 33.3 °F 34.0 °F 89% 30.11 in 10.0 mi South 4.6 mph - N/A   Overcast
8:56 PM 37.9 °F 35.5 °F 34.0 °F 86% 30.13 in 10.0 mi SSE 3.5 mph - N/A   Overcast
9:56 PM 37.0 °F - 34.0 °F 89% 30.16 in 10.0 mi Calm Calm - N/A   Overcast
10:25 PM 37.4 °F 34.9 °F 33.8 °F 87% 30.17 in 10.0 mi South 3.5 mph - N/A   Overcast
10:53 PM 35.6 °F 31.7 °F 33.8 °F 93% 30.18 in 10.0 mi SE 4.6 mph - N/A   Overcast
10:56 PM 36.0 °F 32.1 °F 34.0 °F 93% 30.19 in 10.0 mi SSE 4.6 mph - N/A   Overcast
11:56 PM 37.0 °F 33.3 °F 34.0 °F 89% 30.23 in 10.0 mi SSE 4.6 mph - N/A   Overcast